Simultaneous Nadir Overpasses (SNOs) Predictions

Prediction of SNOs between AURA and NPP Satellite Orbit:

Table of predicted SNOs for the next 14.0 days since TLE Epoch: 10/26/2018
Index Date (AURA) Time (AURA) Lat,Lon (AURA) SZA (AURA ) Date (NPP) Time (NPP) Lat,Lon (NPP) SZA (NPP ) Distance(km) Time Diff (sec)
1 10/29/2018 10:35:27 -79.36, 96.97 74.86 10/29/2018 10:34:23 -79.36, 96.95 74.81 0.56 64
2 10/29/2018 11:24:46 79.62, -93.64 104.81 10/29/2018 11:25:00 79.61, -93.69 104.81 1.07 14
3 11/01/2018 02:51:53 -79.45,-146.58 74.13 11/01/2018 02:51:14 -79.45,-146.61 74.09 0.54 39
4 11/01/2018 03:41:12 79.70, 22.82 105.55 11/01/2018 03:41:51 79.69, 22.77 105.53 1.07 39
5 11/03/2018 19:08:20 -79.53, -30.16 73.40 11/03/2018 19:08:06 -79.53, -30.16 73.39 0.21 14
6 11/03/2018 19:57:39 79.77, 139.26 106.27 11/03/2018 19:58:43 79.77, 139.23 106.23 0.61 64
7 11/06/2018 10:35:25 79.39, -82.84 107.58 11/06/2018 10:34:19 79.39, -82.79 107.62 1.17 66
8 11/06/2018 11:24:46 -79.64, 86.51 72.75 11/06/2018 11:24:57 -79.64, 86.56 72.77 0.97 11
9 11/09/2018 02:51:51 79.50, 33.77 108.21 11/09/2018 02:51:10 79.51, 33.89 108.22 2.39 41




NCC Satellite Simultaneous Nadir Overpasses (SNOs) Prediction Service
